This demonstration page uses our WeatherBlox Daily Observations layout. Learn more.

Hourly Observations for May 21, 2017

Temp ( °F °C ) Dew Point ( °F °C ) Humidity (%) Winds ( mph kmh ) Pressure ( in mb ) Visibility ( mi km ) Precip ( " mm )
12:15 am 00:15 Clear 36 2.2 34 1.2 93 93 W 6 9 30.12 1020 10 16.09344 0 0
12:35 am 00:35 Clear 36 2 34 1.1 94 94 W 3 6 30.12 1020 10 16.09344 0 0
12:55 am 00:55 Clear 35 1.8 34 0.9 94 94 Calm 30.12 1020 10 16.09344 0 0
1:15 am 01:15 Clear 37 2.5 35 1.6 94 94 Calm 30.12 1020 10 16.09344 0 0
1:35 am 01:35 Clear 34 1.3 33 0.4 94 94 Calm 30.12 1020 10 16.09344 0 0
1:55 am 01:55 Clear 35 1.7 33 0.8 94 94 Calm 30.12 1020 10 16.09344 0 0
2:15 am 02:15 Clear 34 1.1 33 0.3 94 94 NW 3 6 30.12 1020 10 16.09344 0 0
2:35 am 02:35 Clear 35 1.4 33 0.5 94 94 WNW 7 11 30.12 1020 10 16.09344 0 0
2:55 am 02:55 Clear 35 1.6 33 0.8 94 94 WNW 5 7 30.12 1020 10 16.09344 0 0
3:15 am 03:15 Clear 35 1.6 33 0.8 94 94 WNW 5 7 30.12 1020 10 16.09344 0 0
3:35 am 03:35 Clear 34 1 32 0.2 94 94 WNW 6 9 30.12 1020 7 11.265408 0 0
3:55 am 03:55 Clear with Mist and Fog 34 1 32 0.1 94 94 NW 7 11 30.12 1020 5 8.04672 0 0
4:15 am 04:15 Clear with Mist and Fog 34 1 33 0.4 96 96 NW 3 6 30.12 1020 5 8.04672 0 0
4:35 am 04:35 Clear with Mist and Fog 34 1.3 33 0.6 95 95 NW 3 6 30.12 1020 5 8.04672 0 0
4:55 am 04:55 Clear with Mist and Fog 34 0.9 32 0.1 94 94 NW 6 9 30.15 1021 5 8.04672 0 0
5:15 am 05:15 Clear with Mist and Fog 33 0.8 32 0.1 95 95 WNW 6 9 30.15 1021 5 8.04672 0 0
5:35 am 05:35 Clear with Mist and Fog 33 0.7 32 0 95 95 WNW 7 11 30.15 1021 5 8.04672 0 0
5:55 am 05:55 Clear with Mist and Fog 33 0.8 32 0.1 95 95 W 8 13 30.18 1022 5 8.04672 0 0
6:15 am 06:15 Clear with Mist and Fog 34 1 32 0.2 94 94 WNW 8 13 30.18 1022 4 6.437376 0 0
6:35 am 06:35 Sunny with Mist and Fog 34 1.2 33 0.5 95 95 WNW 7 11 30.18 1022 4 6.437376 0 0
6:55 am 06:55 Sunny with Mist and Fog 35 1.8 34 1.1 95 95 WNW 7 11 30.15 1021 5 8.04672 0 0
7:15 am 07:15 Sunny with Mist and Fog 36 2.3 35 1.5 95 95 WNW 7 11 30.15 1021 5 8.04672 0 0
7:35 am 07:35 Sunny 38 3.6 37 2.8 95 95 WNW 6 9 30.15 1021 7 11.265408 0 0
7:55 am 07:55 Sunny 41 5 39 4 93 93 WNW 9 15 30.15 1021 10 16.09344 0 0
8:15 am 08:15 Sunny 43 6.2 40 4.6 90 90 WNW 10 17 30.15 1021 10 16.09344 0 0
8:35 am 08:35 Sunny 45 7.4 41 4.9 84 84 WNW 10 17 30.15 1021 10 16.09344 0 0
8:55 am 08:55 Sunny 47 8.4 42 5.4 82 82 WNW 10 17 30.12 1020 10 16.09344 0 0
9:15 am 09:15 Sunny 50 9.8 42 5.8 76 76 WNW 10 17 30.12 1020 10 16.09344 0 0
9:35 am 09:35 Sunny 51 10.7 42 5.6 71 71 WNW 12 19 30.12 1020 10 16.09344 0 0
9:55 am 09:55 Sunny 54 12 42 5.8 66 66 WNW 12 19 30.12 1020 10 16.09344 0 0
10:15 am 10:15 Sunny 55 12.5 42 5.7 64 64 WNW 12 19 30.12 1020 10 16.09344 0 0
10:35 am 10:35 Sunny 56 13.3 43 6 62 62 NW 9 15 30.12 1020 10 16.09344 0 0
10:55 am 10:55 Sunny 58 14.4 43 6.2 58 58 NW 12 19 30.09 1019 10 16.09344 0 0
11:15 am 11:15 Sunny 59 15 43 6.1 56 56 WNW 5 7 30.09 1019 10 16.09344 0 0
11:35 am 11:35 Sunny 61 16.1 44 6.6 54 54 W 5 7 30.09 1019 10 16.09344 0 0
11:55 am 11:55 Sunny 63 17.1 44 6.9 51 51 NW 12 19 30.09 1019 10 16.09344 0 0
12:15 pm 12:15 Sunny 64 17.6 42 5.8 46 46 WNW 12 19 30.09 1019 10 16.09344 0 0
12:35 pm 12:35 Sunny 63 17.1 42 5.3 46 46 NW 9 15 30.09 1019 10 16.09344 0 0
12:55 pm 12:55 Sunny 64 18 40 4.4 41 41 WNW 12 19 30.06 1018 10 16.09344 0 0
1:15 pm 13:15 Sunny 65 18.3 39 3.8 38 38 W 13 20 30.06 1018 10 16.09344 0 0
1:35 pm 13:35 Sunny 65 18.6 41 5 41 41 NNW 10 17 30.03 1017 10 16.09344 0 0
1:55 pm 13:55 Sunny 66 19 38 3.3 35 35 WNW 13 20 30.03 1017 10 16.09344 0 0
2:15 pm 14:15 Sunny 66 19 37 2.7 34 34 WNW 13 20 30.03 1017 10 16.09344 0 0
2:35 pm 14:35 Sunny 67 19.2 39 3.9 37 37 W 14 22 30.03 1017 10 16.09344 0 0
2:55 pm 14:55 Sunny 67 19.5 38 3.5 35 35 WNW 7 11 30.03 1017 10 16.09344 0 0
3:15 pm 15:15 Sunny 67 19.7 40 4.6 37 37 NW 8 13 30.03 1017 10 16.09344 0 0
3:35 pm 15:35 Sunny 67 19.7 40 4.6 37 37 W 14 22 30.03 1017 10 16.09344 0 0
3:55 pm 15:55 Sunny 68 19.8 41 4.8 37 37 WNW 8 13 30 1016 10 16.09344 0 0
4:15 pm 16:15 Sunny 68 20.2 40 4.6 36 36 WNW 12 19 30 1016 10 16.09344 0 0
4:35 pm 16:35 Partly Cloudy 69 20.5 41 4.8 36 36 WNW 7 11 29.97 1015 10 16.09344 0 0
4:55 pm 16:55 Partly Cloudy 69 20.6 39 3.9 33 33 WNW 14 22 29.97 1015 10 16.09344 0 0
5:15 pm 17:15 Partly Cloudy 69 20.7 38 3.4 32 32 WNW 17 28 29.97 1015 10 16.09344 0 0
5:35 pm 17:35 Partly Cloudy 69 20.7 37 2.5 30 30 WNW 7 11 29.94 1014 10 16.09344 0 0
5:55 pm 17:55 Sunny 69 20.6 38 3.1 32 32 WNW 9 15 29.94 1014 10 16.09344 0 0
6:15 pm 18:15 Sunny 69 20.5 38 3.2 32 32 WNW 8 13 29.94 1014 10 16.09344 0 0
6:35 pm 18:35 Sunny 69 20.5 38 3.1 32 32 WNW 12 19 29.94 1014 10 16.09344 0 0
6:55 pm 18:55 Sunny 68 20.2 37 3 32 32 WNW 12 19 29.94 1014 10 16.09344 0 0
7:15 pm 19:15 Sunny 68 20 39 4.1 35 35 WNW 6 9 29.97 1015 10 16.09344 0 0
7:35 pm 19:35 Sunny 66 19.1 41 4.8 39 39 WNW 7 11 29.97 1015 10 16.09344 0 0
7:55 pm 19:55 Partly Cloudy 63 17 45 7.3 53 53 WNW 7 11 29.97 1015 10 16.09344 0 0
8:15 pm 20:15 Partly Cloudy 64 17.5 45 7.4 52 52 W 6 9 29.97 1015 10 16.09344 0 0
8:35 pm 20:35 Sunny 62 16.5 46 8 57 57 NW 7 11 30 1016 10 16.09344 0 0
8:55 pm 20:55 Sunny 57 13.9 46 7.5 66 66 NW 8 13 30 1016 10 16.09344 0 0
9:15 pm 21:15 Clear 56 13.2 46 7.9 70 70 WNW 5 7 30.06 1018 10 16.09344 0 0
9:35 pm 21:35 Clear 55 12.7 47 8.4 75 75 W 3 6 30.06 1018 10 16.09344 0 0
9:55 pm 21:55 Clear 55 12.9 47 8.3 74 74 Calm 30.06 1018 10 16.09344 0 0
10:15 pm 22:15 Mostly Cloudy 56 13.2 47 8.2 72 72 W 3 6 30.06 1018 10 16.09344 0 0
10:35 pm 22:35 Cloudy 54 12.3 49 9.3 82 82 Calm 30.06 1018 10 16.09344 0 0
10:55 pm 22:55 Cloudy 55 12.9 48 8.8 76 76 W 5 7 30.09 1019 10 16.09344 0 0
11:15 pm 23:15 Cloudy 55 12.6 49 9.5 82 82 WNW 6 9 30.09 1019 10 16.09344 0 0
11:35 pm 23:35 Cloudy 55 12.9 49 9.5 80 80 WNW 5 7 30.09 1019 10 16.09344 0 0
11:55 pm 23:55 Cloudy 55 12.7 49 9.7 82 82 WNW 6 9 30.09 1019 10 16.09344 0 0

Powered by AerisWeather